Find Starlink 11476

NORAD ID: 62228 Int'l Des: 2024-231 Owner: SPXS Country: US Constellation: starlink operational
LEOCIRCULAR

現在のビュー

3D地球を読み込み中...

About Starlink 11476

Starlink 11476 (NORAD 62228) is a starlink constellation satellite (v2 mini d2c) launched Dec 5, 2024 by SPXS of US. It operates in LEO, CIRCULAR orbit with a mass of 960.00 kg.

Starlink 11476について

説明を読み込み中...

次回通過

Passes for default location (London). Set your location on the main map for personalized predictions.

高度履歴

Loading altitude history...

軌道要素

1 62228U 24231L 26170.67316396 .00165581 00000-0 13445-2 0 9994
2 62228 53.1580 318.1919 0001046 75.4181 284.6952 15.69710224 89441
Epoch: Jun 19, 2026 • Age: 49 hours

現在のステータス

高度 360.3 km
速度 7.69 km/s
衛星直下点 -8.77°S, 136.69°E
打ち上げ日 Dec 5, 2024
運用期間 1.5 years
タイプ internet

技術仕様

分類 Payload
質量 960.00 kg
乾燥質量 910.00 kg
総質量 960.00 kg
長さ 0.30 m
直径 4.10 m
スパン 29.00 m
形状 Box + pan
製造者 SPXS
バスタイプ Starlink V2MD
フェーズステータス In Orbit
所有者/国 SPXS/US

Most Searched